[[{"header":{"parameterUnit":"m.s-1","parameterCategory":1,"la1":30.2991,"la2":30.254,"lo1":-89.0895,"lo2":-89.0444,"dy":0.0017,"dx":0.0017,"nx":28,"ny":28,"refTime":"2024-04-03T03:00:00:Z","depth":0,"parameterNumber":2,"parameterNumberName":"U-component_of_WINDS"},"data":[0,0,0,0,0,0,0,0,0,0,0,0,0,0,0,0,0,0,0,0,0,0,0,0,0,0,0,0,0,0,0,0,0,0,0,0,0,0,0,0,0,0,0,0,0,0,0,0,0,0,0,0,0,0,0,0,0,0,4.573,4.573,0,4.5736,4.5736,4.5736,4.5651,4.5648,4.5646,4.5644,4.5652,4.5654,4.5657,0,0,0,0,0,0,0,0,0,0,0,0,0,4.5651,4.5653,4.573,4.573,4.5731,4.5736,4.5736,4.5736,4.5651,4.5648,4.5645,4.5643,4.5651,4.5654,4.5657,0,0,0,0,0,0,0,0,0,0,0,0,0,4.5674,4.5654,4.573,4.5689,4.5685,4.5736,4.5736,4.5736,4.5652,4.5648,4.5645,4.5641,4.565,4.5654,4.5657,4.5749,0,0,4.5668,4.567,0,0,0,0,0,0,0,0,4.5673,4.5677,4.5695,4.5692,4.5688,4.5689,4.5711,4.574,4.5652,4.5664,4.5644,4.564,4.5667,4.5669,4.5678,4.575,4.575,4.5669,4.5671,4.5672,4.5673,0,0,0,0,0,0,0,4.5671,4.5676,4.5732,4.5695,4.5691,4.5671,4.5671,4.5716,4.5685,4.5663,4.5657,4.5659,4.5665,4.5675,4.5678,4.575,4.5669,4.5672,4.5674,4.5675,4.5901,4.5904,0,0,0,0,0,0,4.5675,4.5676,4.5732,4.5733,4.5671,4.5676,4.5675,4.5692,4.5685,4.568,4.5662,4.5655,4.567,4.5674,4.5678,4.5787,4.5672,4.5676,4.5678,4.5897,4.5902,4.5906,0,0,0,0,0,0,4.5674,4.5681,4.5732,4.5703,4.5708,4.5681,4.5701,4.5694,4.5704,4.5683,4.5678,4.5677,4.5668,4.5673,4.5733,4.5786,4.5677,4.5681,4.5892,4.5898,4.5904,4.6005,0,0,0,0,0,0,4.5672,4.5681,4.5714,4.5704,4.5709,4.5786,4.5704,4.5697,4.571,4.5701,4.5697,4.5693,4.5665,4.5728,4.5736,4.5789,4.5683,4.5888,4.5895,4.5902,4.5996,4.6013,4.6027,0,0,0,0,0,4.5669,4.5742,4.5716,4.5723,4.575,4.5789,4.5792,4.5759,4.5714,4.5749,4.5736,4.5693,4.5779,4.5735,4.5743,4.5798,4.5884,4.5893,4.5901,4.5989,4.601,4.6027,0,0,0,0,0,0,4.5759,4.574,4.5711,4.5782,4.5788,4.5774,4.5816,4.5781,4.58,4.5791,4.5749,4.5749,4.5817,4.5813,4.5764,4.5888,4.5824,4.5835,4.5888,4.5907,4.5922,4.5922,4.5686,0,0,0,0,0,4.5787,4.5819,4.5801,4.5866,4.587,4.5843,4.5859,4.5833,4.5837,4.5839,4.5831,4.5838,4.5867,4.5886,4.5911,4.5995,4.5995,4.6038,4.6053,4.6066,4.6076,4.6123,4.6143,4.5934,4.5934,4.5934,0,0,4.5846,4.5839,4.5862,4.5884,4.5885,4.5921,4.5846,4.5886,4.5913,4.5846,4.5902,4.5897,4.5902,4.5975,4.6007,4.5975,4.6134,4.6077,4.6087,4.609,4.6134,4.6154,4.6172,4.594,4.5939,4.5938,0,0,4.5971,4.5968,4.6024,4.6027,4.603,4.6012,4.6026,4.6018,4.6012,4.6068,4.6019,4.6051,4.6101,4.6107,4.6117,4.6249,4.6211,4.6259,4.634,4.6386,4.6403,4.6417,4.6466,4.6484,4.6269,4.6269,4.6269,0,4.6044,4.6094,4.6057,4.6101,4.6114,4.6055,4.6112,4.6117,4.6129,4.614,4.6103,4.6166,4.6165,4.624,4.6273,4.6282,4.6298,4.6259,4.6403,4.6417,4.643,4.6477,4.6495,4.6275,4.6274,4.6273,4.6273,0,4.6185,4.6221,4.6266,4.6279,4.6296,4.6347,4.6319,4.6341,4.6315,4.6301,4.6361,4.6358,4.6383,4.6399,4.6373,4.6472,4.6452,4.641,4.6345,4.6457,4.65,4.6517,4.6283,4.6281,4.6279,4.6278,0,0,4.6366,4.6359,4.6376,4.6383,4.6383,4.6411,4.6461,4.6485,4.6506,4.6517,4.6559,4.6604,4.6565,4.6577,4.6552,4.6592,4.67,4.6545,4.6545,4.6576,4.6812,4.6845,4.6866,4.6675,4.6678,4.668,4.6812,0,4.6489,4.6572,4.6541,4.6627,4.6661,4.6607,4.6651,4.6657,4.6647,4.6676,4.6665,4.6698,4.6644,4.6651,4.6689,4.6679,4.6747,4.6669,4.6715,4.6717,4.6717,4.6888,4.6922,4.7046,4.6829,4.6831,4.6834,0,4.6643,4.6661,4.6751,4.6748,4.6761,4.6801,4.6822,4.685,4.6857,4.6847,4.6862,4.6828,4.6879,4.6814,4.6884,4.6832,4.6849,4.6848,4.6852,4.6855,4.6783,4.6898,4.7085,4.7104,4.6859,4.6857,4.6855,0,4.6769,4.6815,4.6875,4.6882,4.688,4.691,4.691,4.6914,4.6931,4.6951,4.6962,4.6987,4.7001,4.7022,4.6998,4.6952,4.7073,4.7005,4.7068,4.7069,4.7096,4.7095,4.729,4.7106,4.7105,4.7105,4.7105,0,4.6911,4.6968,4.6932,4.6969,4.7033,4.6998,4.7063,4.7057,4.7062,4.7098,4.7053,4.7089,4.7054,4.7087,4.7068,4.7131,4.7137,4.7132,4.7127,4.7137,4.7138,4.7148,4.7139,4.711,4.7109,4.7108,4.7107,0,4.7062,4.704,4.7102,4.7096,4.7095,4.7143,4.7138,4.7173,4.716,4.7208,4.7217,4.7198,4.7235,4.7212,4.725,4.7237,4.732,4.7302,4.7317,4.7313,4.7378,4.7373,4.7587,4.7615,4.7412,4.7414,4.7415,0,4.7154,4.7197,4.7196,4.7217,4.7221,4.7255,4.7273,4.7242,4.7263,4.7276,4.731,4.7343,4.7368,4.7431,4.7421,4.745,4.7433,4.7507,4.7438,4.7447,4.7437,4.7435,4.744,4.7521,4.7523,4.7525,4.7527,0,4.7321,4.7309,4.7336,4.7361,4.7384,4.7402,4.7416,4.7436,4.7405,4.7431,4.7468,4.7488,4.7527,4.7562,4.7587,4.7589,4.7555,4.7549,4.7565,4.7576,4.7584,4.7583,4.7357,4.7544,4.7542,4.7541,4.754,4.7539,4.7446,4.7483,4.7489,4.7522,4.7529,4.7545,4.7578,4.757,4.7601,4.763,4.761,4.7655,4.7664,4.7694,4.7702,4.7738,4.7708,4.7732,4.7738,4.7744,4.7754,4.7578,4.7742,4.7742,4.7741,4.7741,4.774,0,4.7613,4.7614,4.7645,4.7667,4.7694,4.7657,4.7672,4.7697,4.7737,4.7748,4.7774,4.7819,4.7853,4.7847,4.7878,4.7908,4.7893,4.7918,4.7916,4.7917,4.7778,4.7761,4.793,4.793,4.793,4.793,4.793,4.793,4.7702,4.7763,4.7753,4.7818,4.7819,4.7863,4.7875,4.789,4.7898,4.795,4.7978,4.7974,4.7979,4.8011,4.8041,4.8039,4.8053,4.8084,4.8076,4.7946,4.7927,4.7909,4.7893,4.8087,4.8087,4.8213,4.8214,4.8215]},{"header":{"parameterUnit":"m.s-1","parameterCategory":1,"la1":30.2991,"la2":30.254,"lo1":-89.0895,"lo2":-89.0444,"dy":0.0017,"dx":0.0017,"nx":28,"ny":28,"refTime":"2024-04-03T03:00:00:Z","depth":0,"parameterNumber":3,"parameterNumberName":"V-component_of_WINDS"},"data":[0,0,0,0,0,0,0,0,0,0,0,0,0,0,0,0,0,0,0,0,0,0,0,0,0,0,0,0,0,0,0,0,0,0,0,0,0,0,0,0,0,0,0,0,0,0,0,0,0,0,0,0,0,0,0,0,0,0,-0.2402,-0.2398,0,-0.2027,-0.2022,-0.2018,-0.191,-0.1912,-0.1914,-0.1916,-0.152,-0.1507,-0.1495,0,0,0,0,0,0,0,0,0,0,0,0,0,-0.3016,-0.3005,-0.2403,-0.2398,-0.2393,-0.2027,-0.2022,-0.2017,-0.191,-0.1912,-0.1915,-0.1917,-0.1524,-0.1509,-0.1494,0,0,0,0,0,0,0,0,0,0,0,0,0,-0.2706,-0.3002,-0.2403,-0.2296,-0.2282,-0.2028,-0.2022,-0.2015,-0.1909,-0.1912,-0.1915,-0.1918,-0.1529,-0.151,-0.1492,-0.1314,0,0,-0.1435,-0.1427,0,0,0,0,0,0,0,0,-0.2723,-0.2683,-0.2316,-0.2303,-0.2287,-0.2019,-0.2093,-0.178,-0.1908,-0.205,-0.1916,-0.192,-0.1682,-0.1651,-0.1573,-0.1296,-0.1279,-0.1433,-0.1422,-0.1414,-0.1408,0,0,0,0,0,0,0,-0.2745,-0.2699,-0.2253,-0.2311,-0.2293,-0.2262,-0.2222,-0.2033,-0.1853,-0.2038,-0.203,-0.1987,-0.1675,-0.1592,-0.1563,-0.1273,-0.1434,-0.1417,-0.1405,-0.1398,-0.0828,-0.0824,0,0,0,0,0,0,-0.2786,-0.2717,-0.2265,-0.2242,-0.2518,-0.2249,-0.2204,-0.2101,-0.1855,-0.1821,-0.1985,-0.1984,-0.1622,-0.1585,-0.1549,-0.1323,-0.1414,-0.1396,-0.1386,-0.0832,-0.0827,-0.0823,0,0,0,0,0,0,-0.28,-0.2747,-0.228,-0.2477,-0.2415,-0.2235,-0.2121,-0.2092,-0.2009,-0.1815,-0.1781,-0.1934,-0.1623,-0.1575,-0.1374,-0.1308,-0.1388,-0.1371,-0.0836,-0.083,-0.0825,-0.0871,0,0,0,0,0,0,-0.2818,-0.2753,-0.2686,-0.2477,-0.2406,-0.2115,-0.2117,-0.2083,-0.1979,-0.1973,-0.1758,-0.1725,-0.1622,-0.1402,-0.1355,-0.1283,-0.1356,-0.0841,-0.0834,-0.0827,-0.0875,-0.0868,-0.0862,0,0,0,0,0,-0.284,-0.2712,-0.2683,-0.2629,-0.2319,-0.2112,-0.207,-0.1958,-0.1974,-0.1903,-0.1778,-0.1732,-0.1324,-0.1383,-0.1329,-0.125,-0.0845,-0.0836,-0.0827,-0.0878,-0.0869,-0.0862,0,0,0,0,0,0,-0.2914,-0.2682,-0.2648,-0.2449,-0.2301,-0.2094,-0.2001,-0.1952,-0.1794,-0.1795,-0.1659,-0.1611,-0.1418,-0.1314,-0.1384,-0.1064,-0.1083,-0.1063,-0.1139,-0.1129,-0.1123,-0.1151,-0.1341,0,0,0,0,0,-0.2908,-0.2763,-0.2566,-0.2409,-0.2337,-0.2183,-0.2088,-0.2015,-0.1854,-0.179,-0.165,-0.1494,-0.1329,-0.1224,-0.1062,-0.086,-0.0809,-0.0779,-0.0773,-0.0769,-0.0752,-0.0634,-0.0618,-0.0794,-0.0794,-0.0794,0,0,-0.2891,-0.2747,-0.2663,-0.242,-0.2297,-0.2146,-0.213,-0.1971,-0.1856,-0.1764,-0.1566,-0.1459,-0.1274,-0.1071,-0.0975,-0.0978,-0.0692,-0.0757,-0.0755,-0.074,-0.0624,-0.0607,-0.0592,-0.0788,-0.0789,-0.079,0,0,-0.2785,-0.2663,-0.2518,-0.2396,-0.2211,-0.2109,-0.2075,-0.1874,-0.18,-0.16,-0.1528,-0.1388,-0.1109,-0.098,-0.0878,-0.0724,-0.0674,-0.0675,-0.064,-0.0527,-0.0513,-0.05,-0.0442,-0.0423,-0.066,-0.066,-0.066,0,-0.2787,-0.256,-0.2448,-0.2293,-0.2187,-0.2101,-0.1951,-0.1837,-0.1607,-0.1534,-0.1543,-0.1191,-0.1061,-0.0826,-0.0789,-0.071,-0.0663,-0.0698,-0.0525,-0.0511,-0.0497,-0.044,-0.0419,-0.0661,-0.0661,-0.0661,-0.0661,0,-0.2571,-0.2415,-0.2319,-0.2104,-0.1987,-0.1835,-0.1697,-0.1591,-0.1528,-0.1425,-0.122,-0.1062,-0.0866,-0.0805,-0.0741,-0.056,-0.0568,-0.0553,-0.0567,-0.0483,-0.0427,-0.0405,-0.0663,-0.0662,-0.0662,-0.0662,0,0,-0.2497,-0.2225,-0.2191,-0.2092,-0.1882,-0.1757,-0.16,-0.1413,-0.1324,-0.1168,-0.1031,-0.0798,-0.0782,-0.0667,-0.0587,-0.0489,-0.0373,-0.0484,-0.0478,-0.0467,-0.0161,-0.0172,-0.0149,-0.0341,-0.0336,-0.0333,-0.0176,0,-0.2363,-0.2083,-0.1978,-0.1747,-0.16,-0.1516,-0.1379,-0.1234,-0.1133,-0.099,-0.0876,-0.0713,-0.0706,-0.0636,-0.0535,-0.0409,-0.031,-0.0419,-0.0207,-0.0201,-0.0253,-0.012,-0.0131,0.0009,-0.0153,-0.015,-0.0147,0,-0.2167,-0.2014,-0.177,-0.1579,-0.1512,-0.1392,-0.121,-0.1076,-0.0909,-0.0842,-0.0714,-0.0641,-0.0469,-0.0498,-0.0258,-0.0335,-0.0242,-0.0167,-0.0158,-0.0131,-0.0167,-0.0087,0.0057,0.0079,-0.0112,-0.0115,-0.0117,0,-0.2136,-0.1868,-0.1687,-0.1605,-0.1377,-0.1294,-0.1194,-0.103,-0.0924,-0.0765,-0.0694,-0.0516,-0.0417,-0.0279,-0.0158,-0.0191,0.0072,0.0053,0.0136,0.0133,0.019,0.0186,0.0354,0.0245,0.0244,0.0244,0.0243,0,-0.1994,-0.1847,-0.167,-0.1558,-0.139,-0.1269,-0.1105,-0.1,-0.0855,-0.0718,-0.0635,-0.0507,-0.0357,-0.0209,-0.0114,0.0072,0.0116,0.0178,0.0202,0.0172,0.0165,0.0238,0.0232,0.025,0.0248,0.0247,0.0246,0,-0.1929,-0.1805,-0.1601,-0.1404,-0.1351,-0.1235,-0.1064,-0.095,-0.0847,-0.0675,-0.0628,-0.0463,-0.0285,-0.0152,0.008,0.0144,0.0344,0.0367,0.0286,0.0299,0.0375,0.0367,0.0599,0.0637,0.0498,0.0499,0.05,0,-0.1846,-0.1731,-0.1523,-0.1427,-0.133,-0.1177,-0.1069,-0.0945,-0.0835,-0.0636,-0.0545,-0.0363,-0.0209,0.0072,0.0215,0.0393,0.0424,0.0492,0.0452,0.0418,0.0429,0.0421,0.0435,0.0499,0.05,0.0501,0.0501,0,-0.171,-0.1655,-0.1505,-0.1332,-0.1207,-0.1064,-0.092,-0.0845,-0.0695,-0.0575,-0.0395,-0.0276,-0.0042,0.0141,0.0333,0.044,0.0498,0.0512,0.0542,0.0514,0.0463,0.0494,0.0304,0.0507,0.0507,0.0506,0.0506,0.0506,-0.1631,-0.1525,-0.1362,-0.1196,-0.1076,-0.0943,-0.0827,-0.071,-0.0558,-0.036,-0.0295,-0.0107,0.006,0.0323,0.0432,0.0583,0.0584,0.0625,0.0637,0.0646,0.0645,0.0435,0.0619,0.0619,0.0619,0.0619,0.0619,0,-0.1489,-0.138,-0.123,-0.1032,-0.0902,-0.0865,-0.0703,-0.0595,-0.0432,-0.0283,-0.0135,0.0074,0.0251,0.0406,0.0591,0.0683,0.0714,0.0727,0.0724,0.0748,0.0633,0.059,0.0699,0.0699,0.0699,0.0699,0.0699,0.0699,-0.1399,-0.1218,-0.1143,-0.0899,-0.079,-0.0609,-0.0519,-0.0394,-0.0275,-0.0047,0.0099,0.0197,0.0351,0.0547,0.0712,0.0754,0.082,0.0827,0.0876,0.0766,0.0756,0.0747,0.0708,0.084,0.084,0.0979,0.0981,0.0981]}]]